{"data":{"norad_id":56532,"intl_designator":"2023-065AF","name":"STARLINK-6319","alt_names":[],"object_type":"PAYLOAD","status":"ACTIVE","operator":null,"country":"US","launch_date":"2023-05-14","launch_site_code":"AFETR","launch_vehicle":null,"mission":null,"orbit_class":"UNKNOWN","rcs_meters":null,"size_class":null,"mass_kg":null,"dimensions":null,"purposes":["comms"],"wikipedia_slug":null,"has_3d_model":false,"image_url":null,"decayed_at":null,"tle_current":{"epoch":"2026-09-20T11:20:19.883040Z","epoch_age_seconds":117182,"freshness":"FRESH","line1":"1 56532U 23065AF  26263.47245235 -.00000211  00000+0  18651-5 0  9998","line2":"2 56532  43.0031 178.2078 0000686 241.5994 118.4789 15.27574844186551","mean_motion":15.27574844,"eccentricity":6.86e-5,"inclination_deg":43.0031,"raan_deg":178.2078,"arg_perigee_deg":241.5994,"mean_anomaly_deg":118.4789,"bstar":1.8651e-6,"rev_number":18655,"period_min":94.267066890766,"perigee_km":482.59385657664,"apogee_km":483.53521342724,"semimajor_km":6861.2015350019,"source":"CELESTRAK","updated_at":"2026-09-21T09:00:33.474958Z"}}}